Regional Weather Roundup
Issued by NWS

Home | Current Version | Previous Version | Text Only | Print | Product List | Glossary Off
Versions: 1 2 3 4 5 6 7 8 9 10 11 12 13 14 15 16 17 18 19 20 21 22 23 24 25 26 27 28 29 30 31 32 33 34 35 36 37 38 39 40 41 42 43 44 45 46 47 48 49 50

000
ASUS43 KLOT 221501
RWRIL

ILLINOIS REGIONAL WEATHER ROUNDUP
NATIONAL WEATHER SERVICE CHICAGO/ROMEOVILLE IL
1000 AM CDT WED MAR 22 2017

NOTE: "FAIR" INDICATES FEW OR NO CLOUDS BELOW 12,000 FEET WITH NO
SIGNIFICANT WEATHER AND/OR OBSTRUCTIONS TO VISIBILITY.

* THESE STATIONS ARE NOT UNDER NWS QUALITY CONTROL. THEY ALSO MAY NOT
  REPORT WEATHER SUCH AS PRECIPITATION OR FOG.

ILZ001-002-007-009-015-016-024-221600-
NORTHWEST ILLINOIS

CITY           SKY/WX    TMP DP  RH WIND       PRES   REMARKS
MOLINE         SUNNY     33  17  51 E17       30.56S WCI  22
STERLING*      SUNNY     31  17  56 E15       30.58R WCI  20
SAVANNA*       MOSUNNY   31  14  51 E12       30.59S WCI  21
$$

ILZ003-004-008-010-011-017-018-221600-
NORTH CENTRAL ILLINOIS

CITY           SKY/WX    TMP DP  RH WIND       PRES   REMARKS
ROCKFORD       MOSUNNY   32  14  47 E14       30.60S WCI  22
FREEPORT*      SUNNY     28  13  51 E15       30.60S WCI  17
ROCHELLE*      SUNNY     30  16  56 NE16      30.58S WCI  18
DE KALB*       SUNNY     31  17  56 NE15      30.57S WCI  20
PERU*          MOSUNNY   31  18  57 E10       30.58R WCI  22
$$

ILZ005-006-012>014-019>023-221600-
NORTHEAST ILLINOIS

CITY           SKY/WX    TMP DP  RH WIND       PRES   REMARKS
CHICAGO-OHARE  CLOUDY    33  17  51 NE15      30.57R WCI  23
CHICAGO-MIDWAY CLOUDY    31  17  56 NE15G24   30.58R WCI  20
AURORA         SUNNY     33  17  51 NE14G21   30.57R WCI  23
LANSING*       CLOUDY    29  19  64 NE13G21   30.58R WCI  19
JOLIET*        CLOUDY    33  20  60 NE10      30.57S WCI  24
WAUKEGAN       CLOUDY    29  18  63 NE13      30.58R WCI  19
DUPAGE AIRPORT PTSUNNY   32  18  56 NE13      30.56R WCI  22
KANKAKEE*      MOSUNNY   31  17  56 E15       30.58R WCI  20
WHEELING       CLOUDY    30  16  56 NE10      30.59R WCI  21
MORRIS*        PTSUNNY   34  19  53 E10G18    30.56S WCI  26
NORTHERLY ISL    N/A     29  19  66 NE17        N/A  WCI  17
$$

LMZ740>746-221600-
SOUTHERN LAKE MICHIGAN

STATION/POSITION SKY/WX   TEMP    WIND        PRES    VSBY  WAVE
                          AIR SEA DIR/SP/G                  HT/PER
                          (F)     (DEG/KT/KT) (MB)    (MI)  (FT/S)
HARRISON CRIB              28      70/ 16/ 18   N/A
BURNHAM HARBOR             29      40/  9/ 18   N/A
CALUMET HARBOR             28      50/ 15/ 21 1034.8R
BURNS HARBOR               26      60/ 15/ 22 1035.9R
MICHIGAN CITY              24      40/ 15/ 17   N/A
$$

ILZ025>027-034>036-040-047-049-050-058-095>099-221600-
WEST-CENTRAL ILLINOIS

CITY           SKY/WX    TMP DP  RH WIND       PRES   REMARKS
QUINCY         SUNNY     35  24  64 E16       30.49S WCI  25
GALESBURG*     SUNNY     32  22  65 E9          N/A  WCI  25
MACOMB*        PTSUNNY   34  24  66 E10       30.56S WCI  26
JACKSONVILLE*  MOSUNNY   35  23  60 E15       30.53S WCI  26
PITTSFIELD*    SUNNY     36  26  66 NE12G20   30.52S WCI  28
$$

ILZ028>032-037-038-041>044-048-051>054-059>061-221600-
CENTRAL ILLINOIS

CITY           SKY/WX    TMP DP  RH WIND       PRES   REMARKS
PONTIAC        MOSUNNY   32  22  68 NE14G20   30.58R WCI  22
BLOOMINGTON    SUNNY     31  20  63 E18G24    30.55R WCI  19
DECATUR        SUNNY     34  16  47 NE18      30.53R WCI  23
PEORIA         MOSUNNY   33  19  56 E14G21    30.56R WCI  23
LACON*         MOSUNNY   32  19  58 E12       30.57R WCI  23
LINCOLN*       SUNNY     34  20  57 E12G20    30.55R WCI  26
SPRINGFIELD    SUNNY     37  18  46 E15       30.54R WCI  28
TAYLORVILLE    SUNNY     34  19  54 E12       30.53R WCI  25
$$

ILZ033-039-045-046-055>057-062-063-221600-
EAST-CENTRAL ILLINOIS

CITY           SKY/WX    TMP DP  RH WIND       PRES   REMARKS
CHAMPAIGN      SUNNY     32  14  47 NE15      30.53R WCI  22
RANTOUL*       SUNNY     32  17  55 E14       30.55R WCI  22
MATTOON        SUNNY     34  18  52 NE14      30.50R WCI  25
PARIS*         SUNNY     32  18  56 NE12      30.53R WCI  23
$$

ILZ079-100>102-221600-
SOUTHWEST ILLINOIS

CITY           SKY/WX    TMP DP  RH WIND       PRES   REMARKS
ALTON          SUNNY     37  21  52 NE14      30.51R WCI  29
BELLEVILLE     SUNNY     40  25  56 NE13      30.49R
CAHOKIA*       SUNNY     41  23  48 E10       30.50R
SPARTA*        MOSUNNY   39  26  58 NE10      30.48R WCI  33
$$

ILZ064>066-069>071-074>076-080>082-084>086-088>090-092>094-221600-
SOUTH-CENTRAL ILLINOIS

CITY           SKY/WX    TMP DP  RH WIND       PRES   REMARKS
CARBONDALE     MOSUNNY   43  27  53 NE17      30.45R
CAIRO*         MOSUNNY   45  30  57 E15       30.40R
EFFINGHAM*     SUNNY     35  22  59 N7G17     30.52R WCI  29
MARION         MOSUNNY   46  27  46 NE16      30.45R
MT. VERNON     SUNNY     40  24  53 NE16      30.47R
CENTRALIA*     SUNNY     39  26  60 E13       30.48R WCI  32
SALEM*         SUNNY     39  24  54 NE9       30.48R WCI  33
METROPOLIS*    MOSUNNY   45  26  46 NE8G18    30.42R
$$

ILZ067-068-072-073-078-083-087-091-221600-
SOUTHEAST ILLINOIS

CITY           SKY/WX    TMP DP  RH WIND       PRES   REMARKS
LAWRENCEVILLE  SUNNY     38  21  50 NE15      30.49R WCI  29
FLORA*         SUNNY     38  25  58 NE10G18   30.50R WCI  31
FAIRFIELD*     SUNNY     39  24  54 NE8       30.47R WCI  34
HARRISBURG*    SUNNY     42  26  52 E12G18    30.45R
ROBINSON*      SUNNY     35  19  52 NE13      30.51R WCI  26
CARMI*         SUNNY     40  24  52 NE15      30.46R
$$

ABBREVIATIONS USED IN REMARKS
   TC - TEMPERATURE IN CELSIUS
  WCI - WIND CHILL INDEX
   HX - HEAT INDEX
  VSB - VISIBILITY
$$




USA.gov is the U.S. government's official web portal to all federal, state and local government web resources and services.